Location: Fort Wayne
(41.1310°N, 85.1290°W)
Time: 12:56:16
(UTC-04:00)

Cosmos 2219 Rocket - Visible Passes

Search period start: 27 August 2014 00:00
Search period end: 06 September 2014 00:00
Orbit: 829 x 846 km, 71.0° (Epoch: 25 August)

Date Brightness Start Highest point End Pass type
(mag) Time Alt. Az. Time Alt. Az. Time Alt. Az.
02 Sep 3.1 06:22:49 10° S 06:28:10 51° ESE 06:33:33 10° NNE visible
03 Sep 3.2 06:06:39 10° S 06:11:56 47° ESE 06:17:16 10° NE visible
04 Sep 3.3 05:50:29 10° S 05:55:43 43° ESE 06:00:58 10° NE visible
05 Sep 3.4 05:34:21 10° S 05:39:29 40° ESE 05:44:40 10° NE visible
